TimeEST,TemperatureF,Dew PointF,Humidity,Sea Level PressureIn,VisibilityMPH,Wind Direction,Wind SpeedMPH,Gust SpeedMPH,PrecipitationIn,Events,Conditions,WindDirDegrees,DateUTC
12:15 AM,42.8,30.2,61,30.40,10.0,NE,4.6,-,N/A,,Clear,50,2012-11-17 05:15:00
12:35 AM,42.8,30.2,61,30.40,10.0,NE,4.6,-,N/A,,Clear,40,2012-11-17 05:35:00
12:55 AM,42.8,30.2,61,30.40,10.0,NE,3.5,-,N/A,,Clear,40,2012-11-17 05:55:00
1:15 AM,41.0,30.2,65,30.41,10.0,Calm,Calm,-,N/A,,Clear,0,2012-11-17 06:15:00
1:35 AM,35.6,30.2,81,30.41,10.0,Calm,Calm,-,N/A,,Clear,0,2012-11-17 06:35:00
1:55 AM,37.4,30.2,75,30.41,10.0,Calm,Calm,-,N/A,,Clear,0,2012-11-17 06:55:00
2:15 AM,35.6,30.2,81,30.42,10.0,Calm,Calm,-,N/A,,Clear,0,2012-11-17 07:15:00
2:35 AM,33.8,30.2,87,30.42,10.0,Calm,Calm,-,N/A,,Clear,0,2012-11-17 07:35:00
2:55 AM,33.8,30.2,87,30.42,10.0,Calm,Calm,-,N/A,,Clear,0,2012-11-17 07:55:00
3:15 AM,32.0,28.4,87,30.42,10.0,Calm,Calm,-,N/A,,Clear,0,2012-11-17 08:15:00
3:35 AM,32.0,28.4,87,30.41,10.0,Calm,Calm,-,N/A,,Clear,0,2012-11-17 08:35:00
3:55 AM,32.0,28.4,87,30.42,10.0,Calm,Calm,-,N/A,,Clear,0,2012-11-17 08:55:00
4:15 AM,32.0,28.4,87,30.43,10.0,Calm,Calm,-,N/A,,Clear,0,2012-11-17 09:15:00
4:35 AM,32.0,28.4,87,30.43,10.0,Calm,Calm,-,N/A,,Clear,0,2012-11-17 09:35:00
4:55 AM,32.0,28.4,87,30.43,10.0,Calm,Calm,-,N/A,,Clear,0,2012-11-17 09:55:00
5:15 AM,32.0,28.4,87,30.43,10.0,Calm,Calm,-,N/A,,Clear,0,2012-11-17 10:15:00
5:35 AM,32.0,28.4,87,30.44,10.0,Calm,Calm,-,N/A,,Clear,0,2012-11-17 10:35:00
5:55 AM,32.0,28.4,87,30.44,10.0,Calm,Calm,-,N/A,,Clear,0,2012-11-17 10:55:00
6:15 AM,32.0,28.4,87,30.45,10.0,North,3.5,-,N/A,,Clear,360,2012-11-17 11:15:00
6:35 AM,32.0,28.4,87,30.45,10.0,Calm,Calm,-,N/A,,Clear,0,2012-11-17 11:35:00
6:55 AM,32.0,28.4,87,30.46,10.0,NNE,3.5,-,N/A,,Clear,30,2012-11-17 11:55:00
7:15 AM,35.6,30.2,81,30.46,10.0,NNE,6.9,-,N/A,,Clear,30,2012-11-17 12:15:00
7:35 AM,39.2,30.2,70,30.47,10.0,NNE,5.8,-,N/A,,Clear,20,2012-11-17 12:35:00
7:55 AM,41.0,30.2,65,30.47,10.0,NNE,4.6,-,N/A,,Clear,20,2012-11-17 12:55:00
8:15 AM,42.8,30.2,61,30.48,10.0,Calm,Calm,-,N/A,,Clear,0,2012-11-17 13:15:00
8:35 AM,44.6,30.2,57,30.48,10.0,Calm,Calm,-,N/A,,Clear,0,2012-11-17 13:35:00
8:55 AM,44.6,30.2,57,30.49,10.0,NE,4.6,-,N/A,,Clear,40,2012-11-17 13:55:00
9:15 AM,44.6,30.2,57,30.49,10.0,ENE,5.8,-,N/A,,Clear,70,2012-11-17 14:15:00
9:35 AM,46.4,30.2,53,30.49,10.0,ENE,9.2,-,N/A,,Clear,60,2012-11-17 14:35:00
9:55 AM,46.4,30.2,53,30.49,10.0,NE,4.6,-,N/A,,Clear,50,2012-11-17 14:55:00
10:15 AM,48.2,30.2,50,30.49,10.0,Calm,Calm,-,N/A,,Clear,0,2012-11-17 15:15:00
10:35 AM,50.0,30.2,47,30.49,10.0,NE,3.5,-,N/A,,Clear,50,2012-11-17 15:35:00
10:55 AM,51.8,28.4,41,30.48,10.0,ENE,6.9,-,N/A,,Clear,60,2012-11-17 15:55:00
11:15 AM,51.8,28.4,41,30.48,10.0,NE,5.8,-,N/A,,Clear,40,2012-11-17 16:15:00
11:35 AM,51.8,26.6,38,30.47,10.0,NNE,10.4,-,N/A,,Clear,30,2012-11-17 16:35:00
12:55 PM,55.4,23.0,29,30.44,10.0,NE,8.1,-,N/A,,Clear,50,2012-11-17 17:55:00
1:15 PM,55.4,21.2,26,30.44,10.0,ENE,6.9,-,N/A,,Clear,60,2012-11-17 18:15:00
1:35 PM,55.4,19.4,25,30.43,10.0,East,11.5,18.4,N/A,,Clear,80,2012-11-17 18:35:00
1:55 PM,55.4,17.6,23,30.42,10.0,NE,11.5,17.3,N/A,,Clear,40,2012-11-17 18:55:00
2:15 PM,55.4,17.6,23,30.42,10.0,NE,9.2,17.3,N/A,,Clear,50,2012-11-17 19:15:00
2:55 PM,55.4,15.8,21,30.41,10.0,East,11.5,16.1,N/A,,Clear,80,2012-11-17 19:55:00
3:15 PM,55.4,17.6,23,30.42,10.0,NE,8.1,-,N/A,,Clear,40,2012-11-17 20:15:00
3:35 PM,55.4,17.6,23,30.43,10.0,East,11.5,-,N/A,,Clear,80,2012-11-17 20:35:00
3:55 PM,53.6,17.6,24,30.43,10.0,ENE,8.1,-,N/A,,Clear,60,2012-11-17 20:55:00
4:15 PM,53.6,17.6,24,30.44,10.0,ENE,9.2,-,N/A,,Clear,70,2012-11-17 21:15:00
4:55 PM,53.6,17.6,24,30.45,10.0,ENE,6.9,-,N/A,,Clear,70,2012-11-17 21:55:00
5:15 PM,51.8,19.4,28,30.45,10.0,NE,5.8,-,N/A,,Clear,50,2012-11-17 22:15:00
5:35 PM,51.8,19.4,28,30.46,10.0,ENE,6.9,-,N/A,,Clear,70,2012-11-17 22:35:00
5:55 PM,50.0,19.4,30,30.46,10.0,NE,5.8,-,N/A,,Clear,50,2012-11-17 22:55:00
6:15 PM,50.0,19.4,30,30.46,10.0,NE,4.6,-,N/A,,Clear,40,2012-11-17 23:15:00
6:55 PM,50.0,21.2,32,30.47,10.0,NE,4.6,-,N/A,,Clear,50,2012-11-17 23:55:00
7:15 PM,50.0,19.4,30,30.47,10.0,ENE,4.6,-,N/A,,Clear,60,2012-11-18 00:15:00
7:35 PM,50.0,21.2,32,30.48,10.0,ENE,4.6,-,N/A,,Clear,60,2012-11-18 00:35:00
7:55 PM,48.2,21.2,34,30.48,10.0,NE,9.2,-,N/A,,Clear,50,2012-11-18 00:55:00
8:15 PM,48.2,21.2,34,30.48,10.0,ENE,10.4,16.1,N/A,,Clear,60,2012-11-18 01:15:00
8:35 PM,46.4,21.2,37,30.48,10.0,ENE,9.2,-,N/A,,Clear,60,2012-11-18 01:35:00
8:55 PM,46.4,21.2,37,30.48,10.0,ENE,9.2,18.4,N/A,,Clear,60,2012-11-18 01:55:00
9:15 PM,46.4,21.2,37,30.49,10.0,ENE,8.1,17.3,N/A,,Clear,60,2012-11-18 02:15:00
9:55 PM,46.4,23.0,40,30.49,10.0,ENE,11.5,19.6,N/A,,Clear,60,2012-11-18 02:55:00
10:15 PM,46.4,23.0,40,30.48,10.0,NE,12.7,19.6,N/A,,Clear,50,2012-11-18 03:15:00
10:35 PM,46.4,23.0,40,30.48,10.0,NE,11.5,17.3,N/A,,Clear,50,2012-11-18 03:35:00
10:55 PM,46.4,24.8,43,30.47,10.0,NE,8.1,-,N/A,,Clear,50,2012-11-18 03:55:00
11:15 PM,44.6,26.6,49,30.47,10.0,NNE,5.8,-,N/A,,Clear,30,2012-11-18 04:15:00
11:35 PM,44.6,26.6,49,30.47,10.0,NE,4.6,-,N/A,,Clear,50,2012-11-18 04:35:00
11:55 PM,44.6,26.6,49,30.47,10.0,NE,6.9,-,N/A,,Clear,40,2012-11-18 04:55:00